Other Public Products
Issued by NWS Charleston, SC

Current Version | Previous Version | Graphics & Text | Print | Product List | Glossary On
Versions: 1 2 3 4 5 6 7 8 9 10 11 12 13 14 15 16 17 18 19 20 21 22 23 24 25 26 27 28 29 30 31 32 33 34 35 36 37 38 39 40 41 42 43 44 45 46 47 48 49 50
000
FPUS82 KCHS 211827
OPUCHS

TEST...KCHS/KSAV Gateway Observations...TEST
National Weather Service Charleston SC
100 PM EST TUE NOV 21 2017

NOTE: "fair" indicates few or no clouds below 12,000 feet with no
significant weather and/or obstructions to visibility.

SCZ050-WAZ558-NCZ071-TXZ119-213-PAZ071-DCZ001-FLZ074-172-MI076-
NYZ176-178-MAZ016-IL014-TNZ027-NJZ106-GAZ044-MD014-211900-

...Gateway Observations for Charleston International...

CITY           SKY/WX    TMP DP  RH WIND       PRES   REMARKS
Chas Airport   PTSUNNY   72  57  59 E9        30.07F
6HR MIN TEMP:  48; 6HR MAX TEMP:  73;

Seattle        LGT RAIN  44  44 100 CALM      29.95S VSB 1
6HR MIN TEMP:  41; 6HR MAX TEMP:  44; 6HR PCP:  0.41;

Charlotte      CLOUDY    60  44  55 VRB3      30.11F
6HR MIN TEMP:  39; 6HR MAX TEMP:  60;

Dallas DFW     PTSUNNY   66  50  56 CALM      29.89F
6HR MIN TEMP:  50; 6HR MAX TEMP:  66;

Dallas Love    PTSUNNY   65  51  60 S7        29.91F
6HR MIN TEMP:  51; 6HR MAX TEMP:  65;

Philladelphia  PTSUNNY   57  29  34 S15G25    30.08F
6HR MIN TEMP:  40; 6HR MAX TEMP:  57;

Wash National  CLOUDY    60  35  39 SW18      30.06F
6HR MIN TEMP:  41; 6HR MAX TEMP:  60;

Baltimore      CLOUDY    60  33  36 SW13G18   30.04F
6HR MIN TEMP:  39; 6HR MAX TEMP:  60;

Miami          MOSUNNY   84  68  58 S6        29.94F
6HR MIN TEMP:  72; 6HR MAX TEMP:  84;

Detroit        PTSUNNY   50  32  50 SW21G30   29.75R
6HR MIN TEMP:  40; 6HR MAX TEMP:  51;

Newark         PTSUNNY   58  30  34 SW17G24   30.05F
6HR MIN TEMP:  36; 6HR MAX TEMP:  59;

Laguardia      MOSUNNY   57  30  35 SW15G23   30.05F
6HR MIN TEMP:  44; 6HR MAX TEMP:  58;

J F K          PTSUNNY   57  35  43 S15       30.08F
6HR MIN TEMP:  42; 6HR MAX TEMP:  57;

Boston Logan   MOSUNNY   58  28  32 SW24G38   30.00F
6HR MIN TEMP:  36; 6HR MAX TEMP:  59;

Ft. Lauderdale PTSUNNY   81  69  67 SE6       29.94F
6HR MIN TEMP:  71; 6HR MAX TEMP:  82;

Chicago O`Hare CLOUDY    42  21  43 W17G24    29.81R
6HR MIN TEMP:  42; 6HR MAX TEMP:  44; 6HR PCP:  0.02;

Chicago Midway CLOUDY    42  26  53 W15G24    29.82S
6HR MIN TEMP:  41; 6HR MAX TEMP:  45; 6HR PCP:  0.04;

Houston Bush   CLOUDY    72  62  71 S8        29.89F
6HR MIN TEMP:  55; 6HR MAX TEMP:  72;

Houston Hobby  CLOUDY    73  63  70 S6        29.88F
6HR MIN TEMP:  61; 6HR MAX TEMP:  73;

Nashville      PTSUNNY   58  31  35 SW7       30.05F
6HR MIN TEMP:  36; 6HR MAX TEMP:  58;

Atlanta        PTSUNNY   63  52  67 SE7       30.06F
6HR MIN TEMP:  44; 6HR MAX TEMP:  63;


$$

GAZ044-118-TXZ119-213-NCZ071-DCZ001-MDZ014-506-PAZ021-071-NJZ106-
NYZ176-178-MAZ106-OHZ011-021-055-MIZ076-KYZ091-ILZ014-INZ047-
MNZ060-ONZ431-211900-

...Gateway Observations for Savannah International...

CITY           SKY/WX    TMP DP  RH WIND       PRES   REMARKS
Savannah Arpt  CLOUDY    73  58  59 E12       30.05F
6HR MIN TEMP:  52; 6HR MAX TEMP:  73;

Atlanta        PTSUNNY   63  52  67 SE7       30.06F
6HR MIN TEMP:  44; 6HR MAX TEMP:  63;

Charlotte      CLOUDY    60  44  55 VRB3      30.11F
6HR MIN TEMP:  39; 6HR MAX TEMP:  60;

Dallas DFW     PTSUNNY   66  50  56 CALM      29.89F
6HR MIN TEMP:  50; 6HR MAX TEMP:  66;

Houston Bush   CLOUDY    72  62  71 S8        29.89F
6HR MIN TEMP:  55; 6HR MAX TEMP:  72;

Wash National  CLOUDY    60  35  39 SW18      30.06F
6HR MIN TEMP:  41; 6HR MAX TEMP:  60;

Wash Dulles    PTSUNNY   57  33  40 S10       30.04F
6HR MIN TEMP:  34; 6HR MAX TEMP:  57;

Baltimore      CLOUDY    60  33  36 SW13G18   30.04F
6HR MIN TEMP:  39; 6HR MAX TEMP:  60;

Philadelphia   PTSUNNY   57  29  34 S15G25    30.08F
6HR MIN TEMP:  40; 6HR MAX TEMP:  57;

Newark         PTSUNNY   58  30  34 SW17G24   30.05F
6HR MIN TEMP:  36; 6HR MAX TEMP:  59;

Laguardia      MOSUNNY   57  30  35 SW15G23   30.05F
6HR MIN TEMP:  44; 6HR MAX TEMP:  58;

J F K          PTSUNNY   57  35  43 S15       30.08F
6HR MIN TEMP:  42; 6HR MAX TEMP:  57;

Boston         MOSUNNY   58  28  32 SW24G38   30.00F
6HR MIN TEMP:  36; 6HR MAX TEMP:  59;

Pittsburg      PTSUNNY   53  28  38 SW15G28   29.91F
6HR MIN TEMP:  40; 6HR MAX TEMP:  53;

Akron          PTSUNNY   51  27  39 SW21G33   29.85F
6HR MIN TEMP:  38; 6HR MAX TEMP:  51;

Cleveland      PTSUNNY   53  30  41 SW22G31   29.83F
6HR MIN TEMP:  40; 6HR MAX TEMP:  53;

Cincinnati     MOSUNNY   54  32  43 SW14G21   29.93F
6HR MIN TEMP:  40; 6HR MAX TEMP:  54;

Columbus       CLOUDY    52  30  42 SW16G26   29.91S
Detroit        PTSUNNY   50  32  50 SW21G30   29.75R
6HR MIN TEMP:  40; 6HR MAX TEMP:  51;

Chicago O`Hare CLOUDY    42  21  43 W17G24    29.81R
6HR MIN TEMP:  42; 6HR MAX TEMP:  44; 6HR PCP:  0.02;

Minneapolis    PTSUNNY   26  13  57 NW20      30.09R WCI  12
6HR MIN TEMP:  23; 6HR MAX TEMP:  28; 6HR PCP: TRACE;

Indianapolis   PTSUNNY   53  33  46 SW16G26   29.89
6HR MIN TEMP:  39; 6HR MAX TEMP:  53;

Toronto Canada MOSUNNY   52  34  50 SW26G35   29.66R

$$




USA.gov is the U.S. government's official web portal to all federal, state and local government web resources and services.